User: anonymous   Login
Location: Unspecified
(0.0000°N, 0.0000°E)
Time: 14:32:59
(UTC+00:00)
Language:

Cosmos 2491 - Orbit

View from above orbital plane
View from above orbital plane
View from above satellite
View from above satellite

Ground track
Ground track

The orbit data is extracted from the following two-line orbital elements,

1 39497U 13076E   17084.89624181 +.00000024 +00000-0 +10000-3 0  9998
2 39497 082.4836 109.5437 0016362 246.9688 112.9661 12.42671966147210
Epoch (UTC): 25 March 2017 21:30:35
Eccentricity: 0.0016362
inclination: 82.4836°
perigee height: 1482 km
apogee height: 1508 km
right ascension of ascending node: 109.5437°
argument of perigee: 246.9688°
revolutions per day: 12.42671966
mean anomaly at epoch: 112.9661°
orbit number at epoch: 14721

The dashed part of the orbit path shows where the satellite is in the earth's shadow,  

DLR